Simultaneous Nadir Overpasses (SNOs) Predictions

Prediction of SNOs between GOES-17 and AQUA Satellite Orbit:

Table of predicted SNOs for the next 14.0 days since TLE Epoch: 8/1/2025
Index Date Time (GOES-17) GOES-17 Lat,Lon AQUA Lat,Lon Distance(km) Time Diff (sec)
1 08/04/2025 08:43:51 -0.13, -89.48 -0.18, -89.17 35.44 80
2 08/04/2025 21:03:07 0.14, -89.51 -0.81, -93.82 490.92 80
3 08/06/2025 20:45:20 0.15, -89.51 0.29, -88.82 79.00 80
4 08/07/2025 09:04:27 -0.15, -89.49 0.72, -93.43 449.76 80
5 08/09/2025 08:41:20 -0.16, -89.49 -0.40, -88.43 120.78 80
6 08/09/2025 21:00:34 0.16, -89.52 -0.62, -93.08 405.27 80
7 08/11/2025 20:42:46 0.16, -89.53 0.48, -88.07 166.30 80
8 08/12/2025 09:01:53 -0.16, -89.51 0.52, -92.69 361.85 80
9 08/14/2025 08:38:44 -0.16, -89.52 -0.55, -87.67 210.13 80
10 08/14/2025 20:57:59 0.16, -89.55 -0.45, -92.32 315.77 80
